Location: Newark
(39.0622°N, 106.5590°E)
Time: 00:17:10
(UTC+00:00)

S-56A Canister/Altair - Pass Details

Date: 27 January 2020
Orbit: 633 x 2499 km, 38.9° (Epoch: 20 February)

Event Time Altitude Azimuth Distance (km) Brightness Sun altitude
Rises 13:44:04 0° 259° (W) 4,084 12.0 -41.9°
Reaches altitude 10° 13:47:19 10° 259° (W) 2,846 11.0 -42.5°
Enters shadow 13:49:37 21° 258° (WSW) 1,969 10.0 -42.9°
